Location: Bright Sky Observatory
(40.7821°N, 74.2425°W)
Time: 14:11:00
(UTC-05:00)

Amateur Radio Satellites - All Passes

Search period start: 19 February 2017 13:41
Search period end: 20 February 2017 13:41
Location: Bright Sky Observatory, 40.7821°N, 74.2425°W

Satellite Date Start Highest point End Downlink Frequencies (MHz)
Time Altitude Azimuth
BEESAT 19 Feb 13:42:37 13:45:31 16° 92° (E) 13:48:25 436.000
AO-85 19 Feb 13:57:19 14:00:55 33° 51° (NE) 14:04:31 145.980
Tancredo 1 19 Feb 13:58:29 14:00:03 13° 6° (N) 14:01:36 437.200
DX 1 19 Feb 14:08:43 14:11:05 15° 297° (WNW) 14:13:27 434.975-435.025
UKube-1 19 Feb 14:35:55 14:36:49 11° 299° (WNW) 14:37:42 .
ISS 19 Feb 14:53:23 14:55:45 18° 17° (NNE) 14:58:07 437.550
MOZHAYETS 4 19 Feb 15:02:32 15:06:51 37° 98° (E) 15:11:06
AO-7 19 Feb 15:04:45 15:13:00 63° 256° (WSW) 15:21:18 .
ITUPSAT 1 19 Feb 15:07:36 15:12:25 71° 286° (WNW) 15:17:11 437.325
ITAMSAT 1 19 Feb 15:17:16 15:21:41 28° 264° (W) 15:26:10 435.822/435.867
BEESAT 19 Feb 15:18:56 15:23:36 53° 288° (WNW) 15:28:15 436.000
Tancredo 1 19 Feb 15:34:17 15:37:10 29° 26° (NNE) 15:40:01 437.200
AO-85 19 Feb 15:38:12 15:41:04 20° 248° (WSW) 15:43:58 145.980
STARS 19 Feb 15:42:08 15:42:46 10° 90° (E) 15:43:25 437.465
CUBESAT XI-V 19 Feb 15:44:44 15:47:38 16° 92° (E) 15:50:31 437.345
BEESAT 3 19 Feb 15:54:16 15:57:55 32° 51° (NE) 16:01:31 437.485
BEESAT 2 19 Feb 16:17:43 16:21:07 25° 48° (NE) 16:24:30 435.950
XW-2F 19 Feb 16:21:07 16:23:27 16° 66° (ENE) 16:25:47 145.980 - 146.000
XW-2D 19 Feb 16:21:26 16:23:55 17° 67° (ENE) 16:26:24 145.860 - 145.880
KKS-1 19 Feb 16:22:15 16:26:43 69° 102° (ESE) 16:31:09 437.445
DOVE 4 19 Feb 16:22:52 16:25:51 19° 67° (ENE) 16:28:50 437.250
XW-2B 19 Feb 16:26:06 16:28:45 18° 67° (ENE) 16:31:27 145.730 - 145.750
KAITUO 1B 19 Feb 16:27:40 16:29:58 16° 67° (ENE) 16:32:18 145.475/437.950
ISS 19 Feb 16:29:21 16:32:38 81° 36° (NE) 16:35:54 437.550
XW-2C 19 Feb 16:34:00 16:37:02 23° 69° (ENE) 16:40:06 145.795 - 145.815
MOZHAYETS 4 19 Feb 16:40:14 16:43:45 22° 294° (WNW) 16:47:14
LilacSat-2 19 Feb 16:43:12 16:46:37 30° 71° (ENE) 16:50:02 437.200
M-CUBED/EXP-1 PRIME 19 Feb 16:46:42 16:49:53 28° 103° (ESE) 16:53:17 437.505
HO-68 19 Feb 17:03:32 17:08:20 20° 56° (NE) 17:13:08 435.675
NUDT-PHONESAT 19 Feb 17:09:15 17:12:52 48° 74° (ENE) 17:16:31 437.300
Tancredo 1 19 Feb 17:10:31 17:13:30 36° 223° (SW) 17:16:28 437.200
RS-15 19 Feb 17:14:59 17:25:46 43° 107° (ESE) 17:36:55 29.354- 29.394
STARS 19 Feb 17:15:09 17:19:34 71° 286° (WNW) 17:23:58 437.465
CUTE-I 19 Feb 17:15:19 17:20:36 70° 74° (ENE) 17:25:56 437.470
PCSat 19 Feb 17:17:32 17:22:54 70° 116° (ESE) 17:28:19 145.827
CUBESAT XI-V 19 Feb 17:20:50 17:25:16 47° 287° (WNW) 17:29:39 437.345
BEESAT 3 19 Feb 17:32:11 17:35:22 23° 247° (WSW) 17:38:31 437.485
SEEDS 19 Feb 17:39:41 17:40:00 10° 62° (ENE) 17:40:19 437.485
XW-2F 19 Feb 17:53:44 17:57:17 36° 262° (W) 18:00:52 145.980 - 146.000
XW-2D 19 Feb 17:54:19 17:57:49 34° 263° (W) 18:01:22 145.860 - 145.880
BEESAT 2 19 Feb 17:55:19 17:58:54 31° 245° (WSW) 18:02:29 435.950
XW-2B 19 Feb 17:59:18 18:02:43 31° 263° (W) 18:06:11 145.730 - 145.750
DOVE 4 19 Feb 17:59:35 18:03:22 32° 263° (W) 18:07:07 437.250
KAITUO 1B 19 Feb 18:00:11 18:03:42 36° 262° (W) 18:07:15 145.475/437.950
KKS-1 19 Feb 18:00:54 18:02:41 12° 298° (WNW) 18:04:29 437.445
CUTE 1.7 + AOD 2 19 Feb 18:01:36 18:05:13 27° 69° (ENE) 18:08:50 437.475
ISS 19 Feb 18:07:48 18:08:38 11° 232° (SW) 18:09:28 437.550
XW-2C 19 Feb 18:07:58 18:11:08 24° 265° (W) 18:14:20 145.795 - 145.815
LilacSat-2 19 Feb 18:18:11 18:20:56 18° 267° (W) 18:23:41 437.200
STRAND 1 19 Feb 18:20:51 18:24:32 19° 93° (E) 18:28:11 437.568
M-CUBED/EXP-1 PRIME 19 Feb 18:21:36 18:24:14 19° 296° (WNW) 18:26:59 437.505
XW-2A 19 Feb 18:33:40 18:37:01 75° 259° (W) 18:40:26 145.665 - 145.685
ZACube-1 19 Feb 18:40:19 18:42:13 13° 62° (ENE) 18:44:08 437.345
NUDT-PHONESAT 19 Feb 18:46:06 18:47:05 11° 270° (W) 18:48:05 437.300
CUBEBUG 2 19 Feb 18:46:34 18:50:33 37° 71° (ENE) 18:54:40 437.445
HO-68 19 Feb 18:47:59 18:55:10 85° 254° (WSW) 19:02:24 435.675
CUTE-I 19 Feb 18:58:22 19:01:09 14° 270° (W) 19:03:56 437.470
PCSat 19 Feb 19:02:53 19:06:49 20° 315° (NW) 19:10:47 145.827
SEEDS 19 Feb 19:10:48 19:15:03 76° 259° (W) 19:19:18 437.485
AAUSAT CUBESAT 2 19 Feb 19:19:52 19:23:59 66° 76° (ENE) 19:28:08 437.432
RS-15 19 Feb 19:25:59 19:37:49 61° 310° (NW) 19:50:05 29.354- 29.394
AO-73 19 Feb 19:30:11 19:34:13 37° 71° (ENE) 19:38:22 145.935
CUTE 1.7 + AOD 2 19 Feb 19:37:24 19:40:59 25° 265° (W) 19:44:34 437.475
UWE-3 19 Feb 19:37:31 19:41:52 85° 76° (ENE) 19:46:23 435.000/436.395/437.385
Oscar 11 19 Feb 19:45:12 19:49:22 48° 73° (ENE) 19:53:35 .
STRAND 1 19 Feb 19:58:58 20:03:57 50° 289° (WNW) 20:08:54 437.568
YUBILEINY 19 Feb 20:01:43 20:06:21 15° 59° (ENE) 20:10:55 435.215
ZACube-1 19 Feb 20:13:33 20:17:53 66° 259° (W) 20:22:22 437.345
DELFI C3 19 Feb 20:16:15 20:19:47 32° 71° (ENE) 20:23:20 145.870
CUBEBUG 2 19 Feb 20:24:10 20:27:18 19° 268° (W) 20:30:31 437.445
HO-68 19 Feb 20:40:17 20:43:50 14° 272° (W) 20:47:22 435.675
AO-73 19 Feb 21:07:24 21:10:35 19° 268° (W) 21:13:49 145.935
UNISAT 6 19 Feb 21:15:42 21:19:28 23° 94° (E) 21:23:11 437.425
TIGRISAT 19 Feb 21:18:04 21:21:48 23° 94° (E) 21:25:30 435.000
Oscar 11 19 Feb 21:23:19 21:25:46 15° 269° (W) 21:28:13 .
PRISM 19 Feb 21:28:08 21:32:13 76° 103° (ESE) 21:36:17 437.425
RS-15 19 Feb 21:43:55 21:53:40 26° 340° (NNW) 22:03:32 29.354- 29.394
DELFI C3 19 Feb 21:51:50 21:54:39 18° 267° (W) 21:57:27 145.870
YUBILEINY 19 Feb 21:56:01 22:04:49 75° 81° (E) 22:13:29 435.215
FO-29 19 Feb 22:11:56 22:19:22 46° 96° (E) 22:26:14 435.910
ESTCUBE 1 19 Feb 22:19:55 22:24:21 57° 74° (ENE) 22:28:47 437.505/2401.250
SO-50 19 Feb 22:29:22 22:32:38 19° 111° (ESE) 22:35:54 436.795
SPROUT 19 Feb 22:34:36 22:37:48 21° 67° (ENE) 22:41:00 437.525
AIST 2D 19 Feb 22:45:57 22:49:01 26° 96° (E) 22:52:03 435.315
UNISAT 6 19 Feb 22:51:55 22:56:13 36° 290° (WNW) 23:00:29 437.425
TIGRISAT 19 Feb 22:54:13 22:58:32 36° 290° (WNW) 23:02:49 435.000
VELOX 1 19 Feb 23:13:10 23:17:32 73° 75° (ENE) 23:21:55 145.980
BUGSAT 1 19 Feb 23:20:40 23:22:15 12° 91° (E) 23:23:50 437.445
DX 1 19 Feb 23:26:09 23:30:15 44° 72° (ENE) 23:34:23 434.975-435.025
O/OREOS (USA 219) 19 Feb 23:29:04 23:33:26 56° 108° (ESE) 23:37:50 437.305
DUCHIFAT 1 19 Feb 23:30:51 23:34:59 46° 99° (E) 23:39:04 145.980
EO-79 19 Feb 23:34:01 23:38:16 61° 101° (E) 23:42:30 145.935-145.965
POLYITAN 1 19 Feb 23:49:27 23:53:47 88° 284° (WNW) 23:58:05 437.675
UKube-1 19 Feb 23:50:58 23:55:11 60° 74° (ENE) 23:59:26 .
50 SAT 19 Feb 23:51:04 23:54:30 50° 260° (W) 23:57:57 437.505
QB50P2 19 Feb 23:52:10 23:56:28 76° 284° (WNW) 00:00:45 145.880/145.840
YUBILEINY 19 Feb 23:54:24 00:00:36 22° 281° (W) 00:06:46 435.215
NANOSAT C BR1 19 Feb 23:55:05 23:59:23 83° 281° (W) 00:03:38 145.865
FO-29 19 Feb 23:57:06 00:04:09 39° 296° (WNW) 00:10:47 435.910
ESTCUBE 1 19 Feb 23:59:18 00:01:29 13° 269° (W) 00:03:41 437.505/2401.250
RS-15 20 Feb 00:02:27 00:12:04 25° 16° (NNE) 00:21:33 29.354- 29.394
SO-50 20 Feb 00:08:11 00:12:45 50° 307° (NW) 00:17:16 436.795
SPROUT 20 Feb 00:09:40 00:13:30 33° 263° (W) 00:17:22 437.525
AIST 2D 20 Feb 00:19:35 00:22:03 18° 292° (WNW) 00:24:31 435.315
PCSat 20 Feb 00:25:16 00:26:18 10° 35° (NE) 00:27:20 145.827
ITUPSAT 1 20 Feb 00:38:36 00:41:18 15° 62° (ENE) 00:44:00 437.325
BEESAT 20 Feb 00:48:45 00:52:05 19° 64° (ENE) 00:55:26 436.000
BUGSAT 1 20 Feb 00:53:47 00:57:56 57° 286° (WNW) 01:02:06 437.445
DX 1 20 Feb 01:04:00 01:06:39 16° 267° (W) 01:09:18 434.975-435.025
DUCHIFAT 1 20 Feb 01:07:41 01:10:16 16° 295° (WNW) 01:12:50 145.980
O/OREOS (USA 219) 20 Feb 01:10:31 01:13:13 16° 306° (NW) 01:15:55 437.305
EO-79 20 Feb 01:11:40 01:13:30 13° 297° (WNW) 01:15:21 145.935-145.965
Gurwin Techsat 1B 20 Feb 01:24:53 01:29:52 39° 98° (E) 01:34:48 435.225
Oscar 19 20 Feb 01:30:06 01:35:15 80° 104° (ESE) 01:40:22 437.125/150
UKube-1 20 Feb 01:30:09 01:31:35 11° 269° (W) 01:33:03 .
ITAMSAT 1 20 Feb 01:52:34 01:54:30 12° 89° (E) 01:56:27 435.822/435.867
MOZHAYETS 4 20 Feb 02:03:57 02:08:09 35° 70° (ENE) 02:12:24
PCSat 20 Feb 02:05:40 02:11:00 52° 57° (ENE) 02:16:17 145.827
ITUPSAT 1 20 Feb 02:13:50 02:18:35 63° 259° (WSW) 02:23:23 437.325
RS-15 20 Feb 02:16:10 02:28:17 55° 47° (NE) 02:39:54 29.354- 29.394
BEESAT 20 Feb 02:24:53 02:29:29 47° 261° (W) 02:34:08 436.000
CUBESAT XI-V 20 Feb 02:48:00 02:51:00 17° 64° (ENE) 02:53:59 437.345
Gurwin Techsat 1B 20 Feb 03:05:12 03:09:36 27° 294° (WNW) 03:14:00 435.225
AO-7 20 Feb 03:06:39 03:14:36 46° 101° (E) 03:22:27 .
Oscar 19 20 Feb 03:11:29 03:13:52 13° 300° (WNW) 03:16:15 437.125/150
KKS-1 20 Feb 03:19:46 03:24:06 61° 74° (ENE) 03:28:28 437.445
ITAMSAT 1 20 Feb 03:29:17 03:34:33 80° 285° (WNW) 03:39:46 435.822/435.867
M-CUBED/EXP-1 PRIME 20 Feb 03:33:07 03:36:08 32° 67° (ENE) 03:39:05 437.505
MOZHAYETS 4 20 Feb 03:41:43 03:45:22 23° 266° (W) 03:49:03
PCSat 20 Feb 03:49:56 03:53:59 22° 254° (WSW) 03:58:00 145.827
STARS 20 Feb 04:11:06 04:15:26 83° 254° (WSW) 04:19:51 437.465
AO-85 20 Feb 04:13:26 04:15:26 13° 110° (ESE) 04:17:23 145.980
CUBESAT XI-V 20 Feb 04:23:24 04:27:57 51° 260° (W) 04:32:31 437.345
RS-15 20 Feb 04:29:12 04:40:39 49° 251° (WSW) 04:51:40 29.354- 29.394
KKS-1 20 Feb 04:59:19 05:01:03 12° 269° (W) 05:02:46 437.445
AO-7 20 Feb 04:59:37 05:07:13 41° 299° (WNW) 05:14:47 .
M-CUBED/EXP-1 PRIME 20 Feb 05:09:12 05:10:44 13° 261° (W) 05:12:15 437.505
ITAMSAT 1 20 Feb 05:11:57 05:13:08 11° 303° (WNW) 05:14:18 435.822/435.867
XW-2F 20 Feb 05:26:32 05:29:32 21° 94° (E) 05:32:29 145.980 - 146.000
XW-2D 20 Feb 05:27:18 05:30:25 23° 95° (E) 05:33:31 145.860 - 145.880
XW-2B 20 Feb 05:32:05 05:35:20 26° 96° (E) 05:38:33 145.730 - 145.750
KAITUO 1B 20 Feb 05:32:05 05:35:01 21° 94° (E) 05:37:54 145.475/437.950
CUTE-I 20 Feb 05:33:01 05:37:38 28° 95° (E) 05:42:13 437.470
STRAND 1 20 Feb 05:36:17 05:40:35 28° 66° (ENE) 05:44:55 437.568
XW-2C 20 Feb 05:40:16 05:43:46 33° 97° (E) 05:47:13 145.795 - 145.815
LilacSat-2 20 Feb 05:50:23 05:54:07 46° 99° (E) 05:57:49 437.200
AO-85 20 Feb 05:50:51 05:55:24 67° 303° (WNW) 05:59:40 145.980
DOVE 4 20 Feb 05:56:59 06:01:31 60° 101° (E) 06:06:18 437.250
NUDT-PHONESAT 20 Feb 06:13:47 06:17:34 73° 102° (ESE) 06:21:19 437.300
HO-68 20 Feb 06:17:35 06:22:15 18° 91° (E) 06:26:54 435.675
SEEDS 20 Feb 06:55:51 06:58:41 18° 93° (E) 07:01:30 437.485
SO-50 20 Feb 07:00:06 07:03:18 19° 43° (NE) 07:06:27 436.795
XW-2F 20 Feb 07:00:27 07:03:37 25° 290° (WNW) 07:06:46 145.980 - 146.000
XW-2D 20 Feb 07:01:26 07:04:31 23° 291° (WNW) 07:07:35 145.860 - 145.880
AAUSAT CUBESAT 2 20 Feb 07:05:34 07:05:43 10° 89° (E) 07:05:52 437.432
KAITUO 1B 20 Feb 07:05:51 07:09:00 25° 290° (WNW) 07:12:06 145.475/437.950
XW-2B 20 Feb 07:06:26 07:09:23 21° 291° (WNW) 07:12:19 145.730 - 145.750
CUTE-I 20 Feb 07:12:48 07:17:42 37° 292° (WNW) 07:22:35 437.470
STRAND 1 20 Feb 07:14:56 07:19:36 35° 263° (W) 07:24:19 437.568
XW-2C 20 Feb 07:15:09 07:17:43 17° 293° (WNW) 07:20:14 145.795 - 145.815
BEESAT 3 20 Feb 07:20:50 07:24:38 59° 119° (ESE) 07:28:33 437.485
CUTE 1.7 + AOD 2 20 Feb 07:21:38 07:25:47 54° 100° (E) 07:29:54 437.475
LilacSat-2 20 Feb 07:26:11 07:27:59 13° 295° (WNW) 07:29:47 437.200
UWE-3 20 Feb 07:28:09 07:31:29 19° 92° (E) 07:34:46 435.000/436.395/437.385
XW-2A 20 Feb 07:28:30 07:31:56 67° 284° (WNW) 07:35:22 145.665 - 145.685
DOVE 4 20 Feb 07:36:17 07:38:47 15° 295° (WNW) 07:41:22 437.250
AO-85 20 Feb 07:36:23 07:36:32 10° 322° (NW) 07:36:41 145.980
BEESAT 2 20 Feb 07:45:53 07:49:37 44° 117° (ESE) 07:53:26 435.950
O/OREOS (USA 219) 20 Feb 08:01:46 08:03:43 12° 52° (NE) 08:05:40 437.305
ZACube-1 20 Feb 08:02:29 08:06:18 25° 94° (E) 08:10:03 437.345
HO-68 20 Feb 08:03:31 08:10:42 79° 287° (WNW) 08:17:50 435.675
CUBEBUG 2 20 Feb 08:13:18 08:18:05 89° 99° (E) 08:22:51 437.445
UNISAT 6 20 Feb 08:14:41 08:17:52 20° 65° (ENE) 08:21:07 437.425
PRISM 20 Feb 08:16:52 08:20:50 50° 73° (ENE) 08:24:48 437.425
TIGRISAT 20 Feb 08:16:55 08:20:03 19° 65° (ENE) 08:23:15 435.000
FO-29 20 Feb 08:24:29 08:29:33 22° 57° (ENE) 08:34:55 435.910
SEEDS 20 Feb 08:30:38 08:34:29 36° 288° (WNW) 08:38:18 437.485
AAUSAT CUBESAT 2 20 Feb 08:37:30 08:41:34 62° 286° (WNW) 08:45:37 437.432
SO-50 20 Feb 08:39:42 08:44:08 59° 241° (WSW) 08:48:31 436.795
AO-73 20 Feb 08:53:58 08:58:34 84° 100° (E) 09:03:05 145.935
CUTE 1.7 + AOD 2 20 Feb 08:59:03 09:01:08 14° 296° (WNW) 09:03:14 437.475
BEESAT 3 20 Feb 09:00:16 09:02:38 15° 317° (NW) 09:05:01 437.485
UWE-3 20 Feb 09:03:39 09:08:06 43° 288° (WNW) 09:12:29 435.000/436.395/437.385
YUBILEINY 20 Feb 09:04:20 09:09:19 17° 76° (ENE) 09:14:17 435.215
Oscar 11 20 Feb 09:08:23 09:12:44 78° 283° (WNW) 09:17:02 .
ISS 20 Feb 09:09:05 09:11:55 27° 135° (SE) 09:14:46 437.550
AIST 2D 20 Feb 09:22:38 09:23:15 10° 65° (ENE) 09:23:51 435.315
BEESAT 2 20 Feb 09:24:45 09:27:37 19° 315° (NW) 09:30:31 435.950
DELFI C3 20 Feb 09:27:47 09:31:38 53° 100° (E) 09:35:29 145.870
ZACube-1 20 Feb 09:38:31 09:42:33 31° 291° (WNW) 09:46:31 437.345
O/OREOS (USA 219) 20 Feb 09:39:07 09:43:41 78° 251° (WSW) 09:48:16 437.305
Tancredo 1 20 Feb 09:47:50 09:51:04 72° 143° (SE) 09:54:19 437.200
UNISAT 6 20 Feb 09:50:06 09:54:15 40° 262° (W) 09:58:33 437.425
TIGRISAT 20 Feb 09:52:14 09:56:24 41° 262° (W) 10:00:43 435.000
CUBEBUG 2 20 Feb 09:52:54 09:53:57 11° 299° (WNW) 09:55:00 437.445
HO-68 20 Feb 09:53:20 09:57:18 16° 307° (NW) 10:01:16 435.675
PRISM 20 Feb 09:54:38 09:56:24 12° 268° (W) 09:58:09 437.425
FO-29 20 Feb 10:06:46 10:13:34 80° 257° (WSW) 10:21:11 435.910
ESTCUBE 1 20 Feb 10:14:40 10:16:24 12° 90° (E) 10:18:08 437.505/2401.250
DUCHIFAT 1 20 Feb 10:22:21 10:26:05 32° 70° (ENE) 10:29:51 145.980
EO-79 20 Feb 10:25:57 10:29:55 42° 72° (ENE) 10:33:56 145.935-145.965
AO-73 20 Feb 10:33:08 10:34:04 11° 299° (WNW) 10:34:59 145.935
POLYITAN 1 20 Feb 10:41:21 10:45:31 65° 75° (ENE) 10:49:45 437.675
QB50P2 20 Feb 10:44:02 10:48:14 76° 76° (ENE) 10:52:29 145.880/145.840
ISS 20 Feb 10:45:13 10:48:18 36° 331° (NNW) 10:51:24 437.550
NANOSAT C BR1 20 Feb 10:46:28 10:50:38 68° 74° (ENE) 10:54:50 145.865
AIST 2D 20 Feb 10:52:34 10:56:00 49° 261° (W) 10:59:29 435.315
YUBILEINY 20 Feb 10:55:54 11:04:44 87° 96° (E) 11:13:36 435.215
DELFI C3 20 Feb 11:04:32 11:05:58 12° 296° (WNW) 11:07:24 145.870
VELOX 1 20 Feb 11:04:56 11:07:12 14° 91° (E) 11:09:27 145.980
Oscar 19 20 Feb 11:10:18 11:13:04 15° 61° (ENE) 11:15:50 437.125/150
Tancredo 1 20 Feb 11:25:06 11:27:39 21° 339° (NNW) 11:30:12 437.200
BUGSAT 1 20 Feb 11:42:48 11:46:49 88° 257° (WSW) 11:50:54 437.445
ESTCUBE 1 20 Feb 11:49:10 11:53:36 62° 286° (WNW) 11:58:00 437.505/2401.250
SPROUT 20 Feb 11:55:08 11:59:12 40° 98° (E) 12:03:14 437.525
FO-29 20 Feb 11:56:39 11:59:50 13° 277° (W) 12:03:10 435.910
DUCHIFAT 1 20 Feb 11:58:40 12:01:48 20° 266° (W) 12:04:58 145.980
EO-79 20 Feb 12:03:20 12:05:52 16° 268° (W) 12:08:28 145.935-145.965
AO-7 20 Feb 12:18:05 12:22:04 14° 46° (NE) 12:26:03 .
POLYITAN 1 20 Feb 12:21:12 12:21:44 10° 271° (W) 12:22:16 437.675
ISS 20 Feb 12:23:40 12:25:30 14° 351° (N) 12:27:19 437.550
VELOX 1 20 Feb 12:39:40 12:43:57 53° 287° (WNW) 12:48:14 145.980
AO-85 20 Feb 12:44:12 12:45:18 11° 39° (NE) 12:46:26 145.980
Gurwin Techsat 1B 20 Feb 12:45:35 12:50:47 61° 73° (ENE) 12:56:03 435.225
Oscar 19 20 Feb 12:46:36 12:51:45 74° 257° (WSW) 12:56:56 437.125/150
50 SAT 20 Feb 12:49:16 12:52:36 43° 286° (WNW) 12:55:53 437.505
DX 1 20 Feb 12:50:10 12:54:33 88° 108° (ESE) 12:58:54 434.975-435.025
YUBILEINY 20 Feb 12:56:36 13:02:42 20° 297° (WNW) 13:08:51 435.215
Tancredo 1 20 Feb 13:03:30 13:04:55 12° 360° (N) 13:06:18 437.200
ITAMSAT 1 20 Feb 13:09:29 13:13:10 20° 63° (ENE) 13:16:52 435.822/435.867
UKube-1 20 Feb 13:13:55 13:18:14 70° 286° (WNW) 13:22:31 .
SPROUT 20 Feb 13:31:51 13:34:48 18° 294° (WNW) 13:37:45 437.525
